Track YAOGAN-30 E now! 10-day predictions YAOGAN-30 E is classified as:
1 43029U 17075B 25193.43325212 .00001631 00000-0 13029-3 0 9999 2 43029 34.9925 177.2982 0003786 157.6854 202.4018 15.00150043416320